Date String (YYYY-MM-DD hh:mm:ss) UTC,Instrument flags,absolute air pressure of the measurement (hPa),sample flow rate (lpm),inlet stack bypass flow (lpm),air temperature of the measurement (°C),ambient temperature measured by the external sensor (°C),aerosol sample conditioner tube jacket temperature (°C),OPC LED temperature (°C),internal box temperature (°C),relative humidity of the measurement (%),span deviation,mass concentration of particles derived from Lorenz-Mie calculation of OPC scattering (μg/m³),mass concentration of particles derived from Lorenz-Mie calculation of OPC scattering (μg/m³),mass concentration of particles derived from Lorenz-Mie calculation of OPC scattering (μg/m³)
DateTimeUTC,F1_M11,P_M11,Q1_M11,Q2_M11,T1_M11,T2_M11,T3_M11,T4_M11,T5_M11,U1_M11,ZSPAN_M11,X2_M11,X0_M11,X1_M11
2023-06-12 09:00:00,SystemResetWarning,0830.9,5.00,000.00,029.6,027.9,000.0,038.3,031.0,30.2,0002.8,0005.37,0008.63,0005.06
2023-06-12 09:01:00,SystemResetWarning,0830.9,4.99,000.00,029.6,027.9,000.0,038.3,030.9,30.3,0002.6,0005.39,0008.67,0005.08
2023-06-12 09:02:00,SystemResetWarning,0830.9,4.99,000.00,029.5,027.8,000.0,038.2,030.9,30.3,0002.3,0005.41,0008.91,0005.09
2023-06-12 09:03:00,SystemResetWarning,0830.9,5.00,000.00,029.5,027.8,000.0,038.2,030.9,30.3,0002.0,0005.43,0009.05,0005.12
2023-06-12 09:04:00,SystemResetWarning,0830.9,5.01,000.00,029.5,027.8,000.0,038.2,030.9,30.4,0002.0,0005.44,0009.11,0005.13
2023-06-12 09:05:00,SystemResetWarning,0830.9,5.01,000.00,029.5,027.8,000.0,038.2,030.9,30.4,0002.1,0005.46,0009.32,0005.14
2023-06-12 09:06:00,SystemResetWarning,0830.9,5.01,000.00,029.5,027.8,000.0,038.2,030.9,30.4,0002.0,0005.46,0009.68,0005.14
2023-06-12 09:07:00,SystemResetWarning,0830.9,5.00,000.00,029.5,027.8,000.0,038.2,030.9,30.4,0001.6,0005.46,0009.70,0005.13
2023-06-12 09:08:00,SystemResetWarning,0830.9,4.99,000.00,029.5,027.8,000.0,038.2,030.9,30.5,0001.7,0005.47,0009.79,0005.13
2023-06-12 09:09:00,SystemResetWarning,0830.9,4.99,000.00,029.5,027.8,000.0,038.2,030.8,30.5,0001.8,0005.47,0009.82,0005.12
2023-06-12 09:10:00,SystemResetWarning,0831.0,4.99,000.00,029.5,027.8,000.0,038.2,030.8,30.5,0002.0,0005.47,0009.80,0005.11
2023-06-12 09:11:00,SystemResetWarning,0830.9,5.00,000.00,029.5,027.8,000.0,038.2,030.8,30.6,0002.1,0005.45,0009.47,0005.10
2023-06-12 09:12:00,SystemResetWarning,0830.9,5.01,000.00,029.5,027.8,000.0,038.2,030.8,30.7,0002.2,0005.41,0009.38,0005.10
2023-06-12 09:13:00,SystemResetWarning,0830.9,5.01,000.00,029.4,027.8,000.0,038.1,030.8,30.7,0002.3,0005.39,0009.10,0005.10
2023-06-12 09:14:00,SystemResetWarning,0830.8,5.01,000.00,029.4,027.8,000.0,038.1,030.8,30.7,0002.6,0005.37,0008.99,0005.08
2023-06-12 09:15:00,SystemResetWarning,0830.7,5.00,000.00,029.4,027.7,000.0,038.1,030.7,30.8,0002.7,0005.38,0008.98,0005.08
2023-06-12 09:16:00,SystemResetWarning,0830.7,4.99,000.00,029.4,027.7,000.0,038.1,030.7,30.9,0002.8,0005.38,0009.67,0005.08
2023-06-12 09:17:00,SystemResetWarning,0830.7,5.00,000.00,029.4,027.7,000.0,038.1,030.7,30.9,0002.8,0005.37,0009.41,0005.07
2023-06-12 09:18:00,SystemResetWarning,0830.8,5.00,000.00,029.4,027.7,000.0,038.1,030.7,30.9,0003.0,0005.42,0009.54,0005.08
2023-06-12 09:19:00,SystemResetWarning,0830.8,5.00,000.00,029.3,027.6,000.0,038.1,030.6,31.0,0003.1,0005.40,0009.67,0005.09
2023-06-12 09:20:00,SystemResetWarning,0830.8,5.00,000.00,029.3,027.6,000.0,038.1,030.6,31.1,0003.1,0005.40,0009.62,0005.09
2023-06-12 09:21:00,SystemResetWarning,0830.8,5.00,000.00,029.3,027.6,000.0,038.1,030.6,31.1,0003.0,0005.38,0009.58,0005.08
2023-06-12 09:22:00,SystemResetWarning,0830.8,5.01,000.00,029.3,027.6,000.0,038.0,030.6,31.2,0002.8,0005.42,0010.33,0005.10
2023-06-12 09:23:00,SystemResetWarning,0830.8,5.01,000.00,029.3,027.6,000.0,038.0,030.6,31.2,0002.5,0005.43,0010.77,0005.11
2023-06-12 09:24:00,SystemResetWarning,0830.7,5.00,000.00,029.3,027.6,000.0,038.0,030.6,31.2,0002.3,0005.43,0011.32,0005.10
2023-06-12 09:25:00,SystemResetWarning,0830.7,4.99,000.00,029.3,027.6,000.0,038.0,030.6,31.2,0002.2,0005.45,0011.36,0005.11
2023-06-12 09:26:00,SystemResetWarning,0830.7,4.99,000.00,029.3,027.6,000.0,038.0,030.6,31.2,0002.1,0005.45,0011.35,0005.12
2023-06-12 09:27:00,SystemResetWarning,0830.8,5.00,000.00,029.3,027.5,000.0,038.0,030.6,31.3,0001.8,0005.48,0010.72,0005.13
2023-06-12 09:28:00,SystemResetWarning,0830.8,5.00,000.00,029.3,027.6,000.0,038.0,030.6,31.2,0001.9,0005.51,0010.52,0005.14
2023-06-12 09:29:00,SystemResetWarning,0830.8,5.01,000.00,029.3,027.6,000.0,038.0,030.6,31.2,0001.8,0005.50,0010.48,0005.15
2023-06-12 09:30:00,SystemResetWarning,0830.8,5.01,000.00,029.3,027.6,000.0,038.0,030.6,31.2,0001.4,0005.52,0010.33,0005.14
2023-06-12 09:31:00,SystemResetWarning,0830.8,4.99,000.00,029.2,027.6,000.0,037.9,030.6,31.2,0001.4,0005.55,0010.40,0005.14
2023-06-12 09:32:00,SystemResetWarning,0830.8,4.99,000.00,029.3,027.6,000.0,037.9,030.7,31.2,0001.7,0005.58,0010.46,0005.15
2023-06-12 09:33:00,SystemResetWarning,0830.9,5.00,000.00,029.3,027.6,000.0,037.9,030.7,31.1,0001.7,0005.57,0009.94,0005.15
2023-06-12 09:34:00,SystemResetWarning,0830.9,5.00,000.00,029.2,027.6,000.0,037.9,030.6,31.2,0001.9,0005.60,0009.54,0005.16
2023-06-12 09:35:00,SystemResetWarning,0830.9,5.00,000.00,029.2,027.6,000.0,037.9,030.6,31.1,0001.8,0005.61,0008.95,0005.16
2023-06-12 09:36:00,SystemResetWarning,0830.9,5.00,000.00,029.2,027.5,000.0,037.9,030.6,31.2,0001.9,0005.61,0008.97,0005.17
2023-06-12 09:37:00,SystemResetWarning,0830.9,5.00,000.00,029.2,027.6,000.0,037.9,030.6,31.3,0002.0,0005.63,0009.00,0005.17
2023-06-12 09:38:00,SystemResetWarning,0830.9,5.00,000.00,029.2,027.6,000.0,037.9,030.6,31.3,0002.3,0005.63,0009.08,0005.17
2023-06-12 09:39:00,SystemResetWarning,0830.9,5.00,000.00,029.2,027.6,000.0,037.9,030.6,31.3,0002.3,0005.64,0009.30,0005.19
2023-06-12 09:40:00,SystemResetWarning,0830.9,4.99,000.00,029.2,027.5,000.0,037.9,030.6,31.4,0002.3,0005.64,0009.63,0005.20
2023-06-12 09:41:00,SystemResetWarning,0830.9,4.99,000.00,029.2,027.5,000.0,037.9,030.6,31.4,0002.6,0005.62,0009.51,0005.22
2023-06-12 09:42:00,SystemResetWarning,0830.9,5.01,000.00,029.2,027.5,000.0,037.9,030.6,31.5,0002.4,0005.62,0009.45,0005.25
2023-06-12 09:43:00,SystemResetWarning,0830.9,5.01,000.00,029.2,027.5,000.0,037.9,030.5,31.5,0002.2,0005.64,0009.52,0005.26
2023-06-12 09:44:00,SystemResetWarning,0830.8,5.00,000.00,029.2,027.5,000.0,037.9,030.5,31.6,0002.3,0005.68,0009.88,0005.27
2023-06-12 09:45:00,SystemResetWarning,0830.8,5.01,000.00,029.2,027.5,000.0,037.9,030.5,31.6,0002.4,0005.68,0009.88,0005.28
2023-06-12 09:46:00,SystemResetWarning,0830.8,5.00,000.00,029.1,027.5,000.0,037.8,030.5,31.6,0002.6,0005.68,0009.86,0005.29
2023-06-12 09:47:00,SystemResetWarning,0830.8,4.99,000.00,029.1,027.4,000.0,037.8,030.4,31.6,0002.6,0005.72,0010.00,0005.29
2023-06-12 09:48:00,SystemResetWarning,0830.7,4.99,000.00,029.1,027.4,000.0,037.8,030.4,31.7,0002.5,0005.72,0010.18,0005.31
2023-06-12 09:49:00,SystemResetWarning,0830.8,5.00,000.00,029.1,027.4,000.0,037.8,030.4,31.7,0002.4,0005.73,0010.13,0005.32
2023-06-12 09:50:00,SystemResetWarning,0830.7,5.00,000.00,029.1,027.4,000.0,037.8,030.4,31.8,0002.6,0005.72,0010.00,0005.33
2023-06-12 09:51:00,SystemResetWarning,0830.7,5.00,000.00,029.0,027.4,000.0,037.8,030.3,31.8,0002.6,0005.74,0009.49,0005.35
2023-06-12 09:52:00,SystemResetWarning,0830.7,5.00,000.00,029.0,027.3,000.0,037.8,030.3,31.8,0002.6,0005.77,0009.56,0005.35
2023-06-12 09:53:00,SystemResetWarning,0830.6,5.00,000.00,029.0,027.3,000.0,037.8,030.3,31.8,0002.6,0005.75,0009.54,0005.35
2023-06-12 09:54:00,SystemResetWarning,0830.6,5.00,000.00,029.0,027.3,000.0,037.7,030.3,31.9,0002.9,0005.76,0009.52,0005.37
2023-06-12 09:55:00,SystemResetWarning,0830.5,5.00,000.00,029.0,027.3,000.0,037.7,030.3,31.9,0002.9,0005.78,0009.39,0005.38
2023-06-12 09:56:00,SystemResetWarning,0830.5,5.01,000.00,029.0,027.3,000.0,037.7,030.3,31.9,0002.5,0005.80,0009.47,0005.40
2023-06-12 09:57:00,SystemResetWarning,0830.5,5.01,000.00,028.9,027.3,000.0,037.7,030.2,31.9,0002.4,0005.80,0009.49,0005.41
2023-06-12 09:58:00,SystemResetWarning,0830.5,5.00,000.00,028.9,027.3,000.0,037.7,030.2,32.0,0002.6,0005.84,0009.59,0005.42
2023-06-12 09:59:00,SystemResetWarning,0830.4,5.00,000.00,028.9,027.3,000.0,037.7,030.2,32.0,0002.7,0005.91,0009.62,0005.44
